Weather History for Pittsfield, IL

Change the Weather History Date:

Sunday, May 19, 2013

  Actual Average (KUIN) Record (KUIN)
Temperature  
Mean Temperature 79 °F 64 °F  
Max Temperature 89 °F 74 °F 90 °F (1962)
Min Temperature 69 °F 54 °F 41 °F (1929)
Degree Days  
Heating Degree Days 0 4  
Month to date heating degree days 104  
Since 1 July heating degree days 5534  
Cooling Degree Days 14 2  
Month to date cooling degree days 28  
Year to date cooling degree days 46  
Growing Degree Days 29 (Base 50)    
Moisture  
Dew Point 66 °F    
Average Humidity 68    
Maximum Humidity 87    
Minimum Humidity 46    
Precipitation  
Precipitation 0.01 in 0.15 in 1.75 in (1931)
Month to date precipitation 2.68  
Year to date precipitation 12.23  
Sea Level Pressure  
Sea Level Pressure 29.81 in    
Wind  
Wind Speed 11 mph (SSE)    
Max Wind Speed 21 mph    
Max Gust Speed 29 mph    
Visibility 9 miles    
Events Rain , Thunderstorm    
T = Trace of Precipitation, MM = Missing Value Source: NWS Daily Summary

Daily Weather History Graph

Daily Weather History Graph

Search for Another Location

Airport:

Trip Planner

Search our weather history database for the weather conditions in past years. The results will help you decide how hot, cold, wet, or windy it might be!

Date:

Astronomy

May. 19, 2013 Rise Set
Actual Time 5:45 AM CDT 8:14 PM CDT
Civil Twilight 5:14 AM CDT 8:45 PM CDT
Nautical Twilight 4:36 AM CDT 9:23 PM CDT
Astronomical Twilight 3:53 AM CDT 10:06 PM CDT
Moon 2:20 PM CDT (5/19) 2:07 AM CDT (5/19)
Length of Visible Light 15h 31m
Length of Day
14h 29m
Waxing Gibbous, 65% of the Moon is Illuminated
May 19
Waxing Gibbous
May 24
Full
May 31
Last Quarter
Jun 8
New
Jun 16
First Quarter

Hourly Weather History & Observations

Time (CDT) Temp. Heat Index Dew Point Humidity Pressure Visibility Wind Dir Wind Speed Gust Speed Precip Events Conditions
12:15 AM 70.9 °F - 63.7 °F 78% 29.91 in 10.0 mi SSE 8.1 mph - N/A   Overcast
12:35 AM 71.1 °F - 63.9 °F 78% 29.90 in 10.0 mi SE 9.2 mph - N/A   Mostly Cloudy
12:55 AM 70.7 °F - 63.9 °F 79% 29.90 in 10.0 mi SE 10.4 mph - N/A   Scattered Clouds
1:15 AM 70.7 °F - 63.7 °F 78% 29.89 in 10.0 mi SE 11.5 mph - N/A   Clear
1:35 AM 70.7 °F - 63.7 °F 78% 29.91 in 10.0 mi SSE 8.1 mph - N/A   Clear
1:55 AM 70.2 °F - 63.5 °F 79% 29.90 in 10.0 mi SE 8.1 mph - N/A   Clear
2:15 AM 70.2 °F - 63.5 °F 79% 29.90 in 10.0 mi SE 8.1 mph - N/A   Mostly Cloudy
2:35 AM 70.3 °F - 63.7 °F 79% 29.90 in 10.0 mi SE 9.2 mph - N/A   Mostly Cloudy
2:55 AM 70.7 °F - 63.9 °F 79% 29.89 in 10.0 mi SE 6.9 mph - N/A   Overcast
3:15 AM 70.7 °F - 63.9 °F 79% 29.89 in 10.0 mi SE 8.1 mph - N/A   Overcast
3:35 AM 70.9 °F - 64.0 °F 79% 29.90 in 10.0 mi SE 6.9 mph - N/A   Overcast
3:55 AM 70.7 °F - 64.0 °F 79% 29.91 in 10.0 mi SSE 5.8 mph - N/A   Overcast
4:15 AM 70.7 °F - 64.0 °F 79% 29.90 in 10.0 mi SE 6.9 mph - N/A   Mostly Cloudy
4:35 AM 70.0 °F - 64.0 °F 81% 29.89 in 10.0 mi ESE 6.9 mph - N/A   Mostly Cloudy
4:55 AM 69.6 °F - 63.9 °F 82% 29.88 in 10.0 mi SE 6.9 mph - N/A   Scattered Clouds
5:15 AM 69.3 °F - 63.9 °F 83% 29.86 in 10.0 mi ESE 9.2 mph - N/A   Clear
5:35 AM 69.3 °F - 63.9 °F 83% 29.86 in 7.0 mi SE 6.9 mph - N/A   Clear
5:55 AM 69.1 °F - 63.9 °F 83% 29.86 in 7.0 mi SSE 5.8 mph - N/A   Clear
6:15 AM 69.3 °F - 64.4 °F 84% 29.88 in 7.0 mi SSE 6.9 mph - N/A   Scattered Clouds
6:35 AM 69.8 °F - 64.4 °F 83% 29.86 in 7.0 mi SE 9.2 mph - N/A   Scattered Clouds
6:55 AM 69.8 °F - 64.4 °F 83% 29.85 in 7.0 mi SE 8.1 mph - N/A   Clear
7:15 AM 70.7 °F - 64.8 °F 81% 29.86 in 7.0 mi SE 8.1 mph - N/A   Clear
7:35 AM 71.4 °F - 65.5 °F 81% 29.86 in 7.0 mi ESE 8.1 mph - N/A   Clear
7:55 AM 72.3 °F - 66.0 °F 80% 29.86 in 7.0 mi SE 9.2 mph - N/A   Clear
8:15 AM 73.0 °F - 66.4 °F 80% 29.86 in 7.0 mi SE 9.2 mph - N/A   Clear
8:35 AM 73.8 °F - 66.6 °F 78% 29.87 in 7.0 mi SSE 9.2 mph - N/A   Clear
8:55 AM 74.7 °F - 67.5 °F 78% 29.86 in 7.0 mi SE 12.7 mph 17.3 mph N/A   Clear
9:15 AM 75.6 °F - 67.8 °F 77% 29.88 in 7.0 mi South 8.1 mph - N/A   Clear
9:35 AM 75.2 °F - 68.0 °F 78% 29.90 in 7.0 mi SSW 10.4 mph 16.1 mph N/A   Scattered Clouds
9:55 AM 75.4 °F - 68.2 °F 78% 29.91 in 7.0 mi South 11.5 mph - N/A   Mostly Cloudy
10:15 AM 76.6 °F - 68.9 °F 77% 29.89 in 7.0 mi South 9.2 mph - N/A   Mostly Cloudy
10:35 AM 78.4 °F - 69.4 °F 74% 29.89 in 7.0 mi South 11.5 mph 16.1 mph N/A   Clear
10:55 AM 79.7 °F - 70.2 °F 73% 29.88 in 7.0 mi SSW 11.5 mph - N/A   Scattered Clouds
11:15 AM 80.1 °F 83.2 °F 70.0 °F 71% 29.88 in 7.0 mi SSW 6.9 mph - N/A Thunderstorm Thunderstorm
11:35 AM 78.1 °F - 69.8 °F 76% 29.88 in 5.0 mi NW 9.2 mph 16.1 mph N/A Rain , Thunderstorm Light Thunderstorms and Rain
11:55 AM 73.8 °F - 69.8 °F 87% 29.87 in 4.0 mi NE 5.8 mph - 0.01 in Rain , Thunderstorm Light Thunderstorms and Rain
12:15 PM 74.5 °F - 70.2 °F 86% 29.85 in 5.0 mi East 8.1 mph - N/A   Haze
12:35 PM 77.9 °F - 71.4 °F 80% 29.83 in 5.0 mi East 8.1 mph - N/A   Haze
12:55 PM 82.0 °F 87.4 °F 73.0 °F 74% 29.81 in 7.0 mi ESE 11.5 mph - N/A   Clear
1:15 PM 84.0 °F 89.9 °F 72.3 °F 68% 29.80 in 7.0 mi SE 16.1 mph 19.6 mph N/A   Clear
1:35 PM 85.5 °F 91.8 °F 72.7 °F 65% 29.80 in 7.0 mi ESE 16.1 mph 21.9 mph N/A   Scattered Clouds
1:55 PM 86.0 °F 91.8 °F 71.6 °F 62% 29.79 in 10.0 mi ESE 17.3 mph 23.0 mph N/A   Scattered Clouds
2:15 PM 86.7 °F 92.1 °F 70.9 °F 59% 29.78 in 7.0 mi SE 15.0 mph - N/A   Scattered Clouds
2:35 PM 87.4 °F 92.7 °F 70.7 °F 57% 29.76 in 7.0 mi SE 20.7 mph 24.2 mph N/A   Scattered Clouds
2:55 PM 87.8 °F 92.6 °F 69.8 °F 55% 29.76 in 10.0 mi SE 16.1 mph 26.5 mph N/A   Scattered Clouds
3:15 PM 89.1 °F 94.6 °F 70.3 °F 54% 29.75 in 10.0 mi SE 18.4 mph 26.5 mph N/A   Mostly Cloudy
3:35 PM 89.6 °F 94.7 °F 69.6 °F 52% 29.74 in 10.0 mi SE 19.6 mph 26.5 mph N/A   Scattered Clouds
3:55 PM 88.7 °F 92.6 °F 68.4 °F 51% 29.73 in 10.0 mi SE 20.7 mph 25.3 mph N/A   Scattered Clouds
4:15 PM 88.5 °F 93.1 °F 69.6 °F 53% 29.73 in 7.0 mi SSE 18.4 mph 26.5 mph N/A   Scattered Clouds
4:35 PM 88.9 °F 93.8 °F 70.0 °F 53% 29.72 in 7.0 mi SE 20.7 mph 27.6 mph N/A   Scattered Clouds
4:55 PM 88.9 °F 94.2 °F 70.5 °F 54% 29.71 in 7.0 mi SSE 18.4 mph - N/A   Scattered Clouds
5:15 PM 89.1 °F 93.3 °F 68.7 °F 51% 29.71 in 10.0 mi South 20.7 mph - N/A   Scattered Clouds
5:35 PM 89.4 °F 91.9 °F 66.0 °F 46% 29.69 in 10.0 mi SSE 19.6 mph 27.6 mph N/A   Clear
5:55 PM 89.1 °F 92.1 °F 66.7 °F 48% 29.69 in 10.0 mi SSE 17.3 mph 25.3 mph N/A   Clear
6:15 PM 88.7 °F 91.9 °F 67.1 °F 49% 29.69 in 10.0 mi SE 16.1 mph 25.3 mph N/A   Clear
6:35 PM 88.2 °F 91.7 °F 67.8 °F 51% 29.68 in 10.0 mi SSE 16.1 mph 23.0 mph N/A   Clear
6:55 PM 87.8 °F 91.1 °F 67.5 °F 51% 29.68 in 10.0 mi SSE 13.8 mph 24.2 mph N/A   Clear
7:15 PM 86.9 °F 89.3 °F 66.2 °F 50% 29.68 in 10.0 mi SSE 16.1 mph 28.8 mph N/A   Clear
7:35 PM 86.0 °F 87.9 °F 65.3 °F 50% 29.69 in 10.0 mi SSE 15.0 mph - N/A   Clear
7:55 PM 85.1 °F 86.4 °F 64.0 °F 49% 29.69 in 10.0 mi SSE 15.0 mph - N/A   Clear
8:15 PM 83.5 °F 84.9 °F 64.2 °F 52% 29.71 in 10.0 mi SSE 10.4 mph - N/A   Clear
8:35 PM 82.9 °F 84.4 °F 64.4 °F 53% 29.71 in 10.0 mi SSE 12.7 mph - N/A   Clear
8:55 PM 82.2 °F 83.8 °F 64.8 °F 55% 29.71 in 10.0 mi SSE 12.7 mph - N/A   Clear
9:15 PM 81.7 °F 83.0 °F 63.7 °F 54% 29.71 in 10.0 mi South 13.8 mph 19.6 mph N/A   Clear
9:35 PM 81.0 °F 82.1 °F 62.6 °F 53% 29.72 in 10.0 mi South 11.5 mph - N/A   Clear
9:55 PM 81.1 °F 82.3 °F 62.4 °F 53% 29.75 in 10.0 mi South 13.8 mph 20.7 mph N/A   Clear
10:15 PM 80.8 °F 81.9 °F 62.2 °F 53% 29.76 in 10.0 mi South 12.7 mph 21.9 mph N/A   Clear
10:35 PM 80.6 °F 81.8 °F 62.6 °F 54% 29.76 in 10.0 mi South 16.1 mph 23.0 mph N/A   Clear
10:55 PM 80.6 °F 81.8 °F 62.6 °F 54% 29.77 in 10.0 mi South 18.4 mph 23.0 mph N/A   Clear
11:15 PM 80.1 °F 81.6 °F 63.5 °F 57% 29.77 in 10.0 mi South 17.3 mph 27.6 mph N/A   Scattered Clouds
11:35 PM 79.7 °F - 64.2 °F 59% 29.76 in 10.0 mi South 16.1 mph 25.3 mph N/A   Mostly Cloudy
11:55 PM 79.3 °F - 64.6 °F 60% 29.75 in 10.0 mi South 16.1 mph 21.9 mph N/A   Scattered Clouds